User: anonymous   Login
Location: Houston
(29.7631°N, 95.3631°W)
Time: 08:33:38
(UTC-05:00)
Language:

AO-91 - Orbit

View from above orbital plane
View from above orbital plane
View from above satellite
View from above satellite

Ground track
Ground track

The orbit data is extracted from the following two-line orbital elements,

1 43017U 17073E   21266.72865613  .00001748  00000-0  13932-3 0  9999
2 43017  97.6953 166.7735 0253902 340.0308  19.1103 14.79758985207658
Epoch (UTC): 23 September 2021 17:29:15
Eccentricity: 0.0253902
inclination: 97.6953°
perigee height: 452 km
apogee height: 808 km
right ascension of ascending node: 166.7735°
argument of perigee: 340.0308°
revolutions per day: 14.79758985
mean anomaly at epoch: 19.1103°
orbit number at epoch: 20765

The dashed part of the orbit path shows where the satellite is in the earth's shadow,  

DLR